Погода в Красном Яре

Россия / Волгоградская область     50°37′00″N   45°46′23″E
темп.,
°C
ветер,
м/с
пор.,
м/с
влажн.,
%
обл.,
%
осадки,
мм/ч
давл.,
гПа
погр.,
м
17 мая, пн
пн1700:00+20ююв225262 0.0 101415
03:00+18юв224647 0.0 101511
06:00+19всв2345100 0.0 101570
09:00+25вюв6113225 0.0 1015638
12:00+29юв810245 0.0 10142400
15:00+29юв710247 0.0 10132338
18:00+26в611335 0.0 1012275
21:00+21в413416 0.0 1013203
18 мая, вт
вт1800:00+18всв22475 0.0 101314
03:00+16св32495 0.0 101215
06:00+17ссв365127 0.0 1012155
09:00+26вюв612305 0.0 1011624
12:00+30юв912224 0.0 10112417
15:00+30юв913240 0.0 10102922
18:00+27вюв713313 0.0 1009358
21:00+21ююв224861 0.0 101031
19 мая, ср
ср1900:00+19всв225337 0.0 101013
03:00+17св345996 0.0 100950
06:00+18ссв235997 0.0 100987
09:00+24вюв6104097 0.0 1009610
12:00+29вюв91331100 0.0 10082099
15:00+29вюв9123491 0.0 10072165
18:00+22юз2747100 0.3 1008120
21:00+19ююз81365100 0.4 1009307
20 мая, чт
чт2000:00+16ссв1285100 1.2 100922
03:00+14сз3592100 1.9 1009129
06:00+15юз2386100 0.1 1011317
09:00+17юз4471100 0.1 1012773
12:00+21юз5649100 0.1 10121759
15:00+20юз785365 0.1 10121349
18:00+19зюз69586 0.0 10121249
21:00+15юз37755 0.1 1014161
21 мая, пт
пт2100:00+14юз49826 0.0 1014201
03:00+13зюз3983100 0.0 1015206
06:00+15юз3576100 0.0 1017206
09:00+20ююз4556100 0.0 1017935
12:00+23ю574981 0.0 10171693
15:00+24ююв464334 0.0 10161440
18:00+24юв4850100 0.0 1015425
21:00+21ююв365767 0.0 1016111